Location: Maiden
(35.5760°N, 81.2120°W)
Time: 02:35:55
(UTC-04:00)

Vanguard 2 - Pass Details

Date: 11 August 2020
Orbit: 553 x 2937 km, 32.9° (Epoch: 20 September)

Event Time Altitude Azimuth Distance (km) Brightness Sun altitude
Rises 04:43:04 0° 273° (W) 4,656 - -21.8°
Reaches altitude 10° 04:49:36 10° 242° (WSW) 2,986 - -20.8°
Maximum altitude 04:51:14 11° 228° (SW) 2,755 - -20.5°
Drops below altitude 10° 04:52:44 10° 214° (SW) 2,664 - -20.3°
Sets 04:57:15 0° 177° (S) 3,170 - -19.5°
